Flag for Gambia Weather past 2 weeks in Banjul, Gambia

Now
93 °F

Sunny.


Feels Like: 91 °F
Forecast: 74 / 89 °F
Wind: 12 mph from Northeast

Location: Banjul / Yundum

Current Time: May 27, 2015 at 2:16:25 PM

Latest Report: May 27, 2015 at 2:00 PM


Visibility: 10 mi

Pressure: 29.83 "Hg

Humidity: 26%

Dew point: 54 °F

Location of BanjulLocation

Historic Weather in Banjul — Graph

°F

Banjul temperature yesterday

Maximum temperature yesterday: 97 °F (at 2:00 PM)
Minimum temperature yesterday: 73 °F (at 5:00 AM)
Average temperature yesterday: 82 °F

Past Weeks' High & Low Weather Summary

 TemperatureHumidityPressure
High97 °F (May 26, 2:00 PM)100% (May 14, 1:00 AM)30.01 "Hg (May 14, 1:00 AM)
Low72 °F (May 25, 5:00 AM)22% (May 26, 1:00 PM)29.77 "Hg (May 15, 4:00 PM)
Average81 °F71%29.86 "Hg
* Reported May 12 1:00 PM — May 27 1:00 PM, Banjul, Weather by CustomWeather, © 2015

Note: Actual official high and low records may vary slightly from our data, if they occured in-between our weather recording intervals... More about our weather records

Advertising

Banjul weather history for previous 24 hours

 ConditionsComfort  
Time TempWeatherWind HumidityBarometerVisibility
1:00 PM
Wed, May 27
91 °FSunny.12 mph30%29.86 "Hg10 mi
12:00 PM90 °FSunny.14 mph29%29.89 "Hg10 mi
11:00 AM86 °FSunny.12 mph31%29.89 "Hg10 mi
10:00 AM84 °FSunny.13 mph37%29.89 "Hg10 mi
9:00 AM81 °FSunny.10 mph58%29.89 "Hg10 mi
8:00 AM75 °FSunny.No wind65%29.83 "Hg10 mi
7:00 AM72 °FSunny.No wind73%29.83 "Hg10 mi
6:00 AM73 °FClear.No wind69%29.83 "Hg10 mi
4:00 AM77 °FClear.No wind61%29.83 "Hg10 mi
3:00 AM79 °FClear.No wind54%29.83 "Hg10 mi
2:00 AM79 °FClear.5 mph61%29.83 "Hg10 mi
1:00 AM79 °FClear.3 mph74%29.83 "Hg10 mi
12:00 AM79 °FClear.5 mph74%29.83 "Hg10 mi
11:00 PM
Tue, May 26
79 °FClear.7 mph74%29.83 "Hg10 mi
10:00 PM79 °FClear.9 mph74%29.83 "Hg10 mi
9:00 PM79 °FClear.12 mph74%29.80 "Hg10 mi
8:00 PM79 °FClear.14 mph74%29.80 "Hg10 mi
7:00 PM82 °FSunny.12 mph66%29.80 "Hg10 mi
6:00 PM86 °FSunny.14 mph55%29.80 "Hg10 mi
5:00 PM90 °FSunny.14 mph46%29.80 "Hg10 mi
4:00 PM91 °FSunny.12 mph44%29.80 "Hg10 mi
3:00 PM97 °FSunny.12 mph34%29.80 "Hg10 mi
2:00 PM97 °FSunny.12 mph22%29.83 "Hg10 mi
Weather by CustomWeather, © 2015

See weather overviewHow to use our weather pages